Regional Weather Roundup
Issued by NWS

Home | Current Version | Previous Version | Graphics & Text | Print | Product List | Glossary Off
Versions: 1 2 3 4 5 6 7 8 9 10 11 12 13 14 15 16 17 18 19 20 21 22 23 24 25 26 27 28 29 30 31 32 33 34 35 36 37 38 39 40 41 42 43 44 45 46 47 48 49 50

000
ASUS43 KFSD 290310
RWRSD

WEATHER ROUNDUP FOR SOUTH DAKOTA
NATIONAL WEATHER SERVICE SIOUX FALLS SD
1000 PM CDT WED SEP 28 2016

NOTE: "FAIR" INDICATES FEW OR NO CLOUDS BELOW 12,000 FEET WITH NO
SIGNIFICANT WEATHER AND/OR OBSTRUCTIONS TO VISIBILITY.


SDZ001>005-009-010-012>017-290400-
NORTHWEST AND NORTH CENTRAL SOUTH DAKOTA

CITY           SKY/WX    TMP DP  RH WIND       PRES   REMARKS
BUFFALO          N/A     63  42  46 SE20G25   30.24R
FAITH            N/A     55  33  43 SE13      30.34R
MOBRIDGE       CLEAR     55  42  61 VRB6      30.34R
$$

SDZ012>016-024>037-041>051-057-063-072>074-290400-
SOUTHWEST AND SOUTH CENTRAL SOUTH DAKOTA

CITY           SKY/WX    TMP DP  RH WIND       PRES   REMARKS
RAPID CTY ARPT CLEAR     54  38  54 SE7       30.33R
PIERRE         CLEAR     51  40  65 E5        30.33R
CUSTER         CLEAR     53  40  61 NE6       30.42R
ELLSWORTH AFB  CLEAR     57  41  54 SE9       30.33R
PHILIP         CLEAR     48  35  60 E6        30.33R
PINE RIDGE     CLEAR     56  41  57 E7        30.33R
WINNER         FAIR      52  44  74 SE10      30.35R
$$

SDZ004>011-016>023-039-040-290400-
NORTHEAST SOUTH DAKOTA

CITY           SKY/WX    TMP DP  RH WIND       PRES   REMARKS
ABERDEEN         N/A     49  42  77 E8        30.38R
WATERTOWN      CLEAR     46  43  89 N3        30.38R
BROOKINGS      CLEAR     45  43  93 NE3       30.36R
SISSETON         N/A     43  40  89 CALM      30.38R
$$

SDZ017-020-022-023-036>040-048>070-290400-
SOUTHEAST SOUTH DAKOTA

CITY           SKY/WX    TMP DP  RH WIND       PRES   REMARKS
SIOUX FALLS    CLEAR     49  45  86 CALM      30.35R
HURON          CLEAR     50  45  83 E7        30.36R
CHAMBERLAIN    CLEAR     52  47  83 E3        30.35R
MITCHELL       CLEAR     50  44  80 SE7       30.36R
YANKTON        CLEAR     52  45  76 E5        30.34R
$$

ABBREVIATIONS USED IN REMARKS
   TC - TEMPERATURE IN CELSIUS
  WCI - WIND CHILL INDEX
   HX - HEAT INDEX
  VSB - VISIBILITY




USA.gov is the U.S. government's official web portal to all federal, state and local government web resources and services.